Home > Weather > Colorado Springs > Past weeks

Flag for USA Past Weather in Colorado Springs, Colorado, USA — Yesterday and Last 2 Weeks

Now
58 °F

Partly sunny.


Feels Like: 58 °F
Forecast: 46 / 61 °F
Wind: 5 mph from East

Location: City Of Colorado Springs Municipal Airport

Current Time: May 26, 2016 at 10:39:58 AM

Latest Report: May 26, 2016 at 9:54 AM


Visibility: 10 mi

Pressure: 29.83 "Hg (23.99 "Hg at 1831m altitude)

Humidity: 60%

Dew Point: 44 °F

Location of Colorado SpringsLocation

Past Weather in Colorado Springs — Graph

°F

Colorado Springs Temperature Yesterday

Maximum temperature yesterday: 77 °F (at 2:54 PM)
Minimum temperature yesterday: 52 °F (at 4:54 AM)
Average temperature yesterday: 65 °F

High & Low Weather Summary for the Past Weeks

 TemperatureHumidityPressure
High81 °F (May 21, 2:54 PM)100% (May 17, 4:54 AM)30.35 "Hg (May 17, 4:54 AM)
Low36 °F (May 19, 3:54 AM)7% (May 25, 2:54 PM)29.52 "Hg (May 22, 4:54 PM)
Average55 °F53%29.94 "Hg
* Reported May 11 8:54 AM — May 26 8:54 AM, Colorado Springs, Weather by CustomWeather, © 2016

Note: Actual official high and low records may vary slightly from our data, if they occured in-between our weather recording intervals... More about our weather records

Advertising

Colorado Springs Weather History for the Previous 24 Hours

Scroll right to see more
 ConditionsComfort  
Time TempWeatherWind HumidityBarometerVisibility
8:54 AM
Thu, May 26
57 °FPartly sunny.12 mph62%29.83 "Hg10 mi
7:54 AM58 °FScattered clouds.5 mph54%29.81 "Hg10 mi
6:54 AM53 °FScattered clouds.3 mph56%29.82 "Hg10 mi
5:54 AM50 °FPartly cloudy.10 mph63%29.82 "Hg10 mi
4:54 AM51 °FPassing clouds.15 mph66%29.80 "Hg10 mi
3:54 AM52 °FPassing clouds.15 mph64%29.82 "Hg10 mi
2:54 AM53 °FPartly cloudy.10 mph61%29.83 "Hg10 mi
1:54 AM53 °FPartly cloudy.14 mph56%29.81 "Hg10 mi
12:54 AM50 °FPassing clouds.10 mph59%29.82 "Hg10 mi
11:54 PM
Wed, May 25
54 °FPassing clouds.13 mph40%29.82 "Hg10 mi
10:54 PM52 °FPassing clouds.9 mph37%29.82 "Hg10 mi
9:54 PM60 °FPassing clouds.10 mph19%29.78 "Hg10 mi
8:54 PM62 °FScattered clouds.5 mph16%29.76 "Hg10 mi
7:54 PM67 °FPartly sunny.12 mph12%29.74 "Hg10 mi
6:54 PM72 °FBroken clouds.14 mph13%29.72 "Hg10 mi
5:54 PM72 °FScattered clouds.15 mph12%29.73 "Hg10 mi
4:54 PM76 °FBroken clouds.21 mph8%29.74 "Hg10 mi
3:54 PM76 °FBroken clouds.25 mph7%29.72 "Hg10 mi
2:54 PM77 °FBroken clouds.23 mph7%29.72 "Hg10 mi
1:54 PM75 °FBroken clouds.21 mph8%29.74 "Hg10 mi
12:54 PM72 °FBroken clouds.3 mph11%29.79 "Hg10 mi
11:54 AM70 °FPassing clouds.13 mph14%29.79 "Hg10 mi
10:54 AM68 °FPassing clouds.8 mph15%29.80 "Hg10 mi
Weather by CustomWeather, © 2016

See weather overviewHow to use our weather pages